| time (UTC) | temp F | wind direction | speed MPH | gust MPH | rain 1hr in | rain 24hr in | rain mn in | humidity % | barometer mb |
| 20260504031510 | 45 | 1 | 0.0 | 3.0 | 0.00 | 0.00 | 0.00 | 54 | 1009.8 |
| 20260504030018 | 45 | 323 | 0.0 | 2.0 | 0.00 | 0.00 | 0.00 | 57 | 1009.7 |
| 20260504024511 | 45 | 314 | 0.0 | 0.0 | 0.00 | 0.00 | 0.00 | 55 | 1009.6 |
| 20260504023009 | 46 | 314 | 0.0 | 0.0 | 0.00 | 0.00 | 0.00 | 48 | 1009.7 |
| 20260504021508 | 46 | 314 | 0.0 | 1.0 | 0.00 | 0.00 | 0.00 | 51 | 1009.7 |
| 20260504020011 | 47 | 314 | 0.0 | 2.0 | 0.00 | 0.00 | 0.00 | 46 | 1009.7 |
| 20260504014514 | 48 | 311 | 0.0 | 0.0 | 0.00 | 0.00 | 0.00 | 44 | 1009.8 |
| 20260504013025 | 49 | 311 | 0.0 | 0.0 | 0.00 | 0.00 | 0.00 | 41 | 1009.8 |
| 20260504011507 | 50 | 311 | 0.0 | 0.0 | 0.00 | 0.00 | 0.00 | 39 | 1009.7 |
| 20260504010007 | 50 | 312 | 0.0 | 3.0 | 0.00 | 0.00 | 0.00 | 38 | 1009.3 |
| 20260504004643 | 51 | 321 | 0.0 | 2.0 | 0.00 | 0.00 | 0.00 | 36 | 1009.2 |
| 20260504003006 | 52 | 356 | 1.0 | 4.0 | 0.00 | 0.00 | 0.00 | 36 | 1009.0 |
| 20260504001504 | 52 | 326 | 2.0 | 7.0 | 0.00 | 0.00 | 0.00 | 35 | 1008.7 |
| 20260504000004 | 53 | 309 | 1.0 | 6.0 | 0.00 | 0.00 | 0.00 | 34 | 1008.5 |
| 20260503234503 | 54 | 276 | 0.0 | 7.0 | 0.00 | 0.00 | 0.00 | 33 | 1008.3 |
| 20260503233006 | 54 | 336 | 2.0 | 10.0 | 0.00 | 0.00 | 0.00 | 31 | 1008.1 |
| 20260503231502 | 55 | 338 | 3.0 | 12.0 | 0.00 | 0.00 | 0.00 | 29 | 1007.9 |
| 20260503230001 | 56 | 307 | 3.0 | 11.0 | 0.00 | 0.00 | 0.00 | 26 | 1007.7 |
| 20260503224607 | 57 | 321 | 2.0 | 9.0 | 0.00 | 0.00 | 0.00 | 23 | 1007.5 |
| 20260503223059 | 58 | 298 | 2.0 | 6.0 | 0.00 | 0.00 | 0.00 | 22 | 1007.3 |
| 20260503221604 | 58 | 354 | 3.0 | 8.0 | 0.00 | 0.00 | 0.00 | 21 | 1007.3 |
| 20260503220058 | 59 | 331 | 1.0 | 12.0 | 0.00 | 0.00 | 0.00 | 22 | 1007.3 |
| 20260503214600 | 59 | 314 | 3.0 | 8.0 | 0.00 | 0.00 | 0.00 | 24 | 1007.2 |
| 20260503213054 | 59 | 330 | 5.0 | 11.0 | 0.00 | 0.00 | 0.00 | 25 | 1007.4 |
| 20260503211553 | 58 | 291 | 3.0 | 12.0 | 0.00 | 0.00 | 0.00 | 27 | 1007.4 |
| 20260503210051 | 58 | 353 | 2.0 | 5.0 | 0.00 | 0.00 | 0.00 | 28 | 1007.5 |
| 20260503204546 | 57 | 1 | 2.0 | 5.0 | 0.00 | 0.00 | 0.00 | 29 | 1007.7 |
| 20260503203102 | 55 | 287 | 2.0 | 8.0 | 0.00 | 0.00 | 0.00 | 31 | 1007.9 |
| 20260503201541 | 55 | 325 | 4.0 | 11.0 | 0.00 | 0.00 | 0.00 | 31 | 1008.1 |
| 20260503200040 | 55 | 354 | 3.0 | 8.0 | 0.00 | 0.00 | 0.00 | 31 | 1008.2 |
| 20260503194542 | 55 | 103 | 3.0 | 10.0 | 0.00 | 0.00 | 0.00 | 31 | 1008.4 |
| 20260503193038 | 54 | 359 | 4.0 | 10.0 | 0.00 | 0.00 | 0.00 | 32 | 1008.6 |
| 20260503191531 | 54 | 316 | 2.0 | 8.0 | 0.00 | 0.00 | 0.00 | 33 | 1008.6 |
| 20260503190040 | 53 | 295 | 2.0 | 9.0 | 0.00 | 0.00 | 0.00 | 34 | 1008.8 |
| 20260503184529 | 54 | 317 | 2.0 | 6.0 | 0.00 | 0.00 | 0.00 | 35 | 1008.9 |
| 20260503183025 | 53 | 321 | 1.0 | 5.0 | 0.00 | 0.00 | 0.00 | 36 | 1009.0 |
| 20260503181523 | 52 | 1 | 3.0 | 8.0 | 0.00 | 0.00 | 0.00 | 37 | 1009.3 |
| 20260503180022 | 52 | 306 | 2.0 | 8.0 | 0.00 | 0.00 | 0.00 | 36 | 1009.3 |
| 20260503174520 | 51 | 297 | 2.0 | 7.0 | 0.00 | 0.00 | 0.00 | 39 | 1009.4 |
| 20260503173020 | 51 | 346 | 1.0 | 8.0 | 0.00 | 0.00 | 0.00 | 36 | 1009.5 |
| 20260503171520 | 52 | 303 | 2.0 | 9.0 | 0.00 | 0.00 | 0.00 | 37 | 1009.4 |
| 20260503130156 | 47 | 293 | 2.0 | 5.0 | 0.00 | 0.00 | 0.00 | 54 | 1010.4 |